Location: Unspecified
(0.0000°N, 0.0000°E)
Time: 23:43:23
(UTC+00:00)

Vanguard 1 - Pass Details

Date: 03 October 2020
Orbit: 649 x 3833 km, 34.3° (Epoch: 28 October)

Event Time Altitude Azimuth Distance (km) Brightness Sun altitude
Rises 07:14:26 0° 259° (W) 4,676 13.0 21.3°
Reaches altitude 10° 07:18:01 10° 245° (WSW) 4,125 12.8 22.2°
Maximum altitude 07:26:52 24° 196° (SSW) 4,090 13.3 24.4°
Drops below altitude 10° 07:40:06 10° 149° (SSE) 6,251 14.7 27.7°
Sets 07:47:44 0° 137° (SE) 7,697 15.3 29.6°
